FW2197 Weather Reports


time (UTC)temp
F
wind
direction
speed
knots
gust
knots
rain 1hr
in
rain 24hr
in
rain mn
in
humidity
%
barometer
mb
20260508213552 75 135 0.9 3.5 0.00 0.00 0.00 21 1019.5
20260508213035 74 158 1.7 7.0 0.00 0.00 0.00 21 1019.2
20260508212532 74 135 4.3 9.6 0.00 0.00 0.00 21 1019.4
20260508212034 74 135 3.5 7.8 0.00 0.00 0.00 21 1019.3
20260508211534 74 203 2.6 7.8 0.00 0.00 0.00 22 1019.4
20260508211035 74 113 0.9 7.8 0.00 0.00 0.00 21 1019.3
20260508210533 75 113 2.6 8.7 0.00 0.00 0.00 22 1019.5
20260508210034 74 113 3.5 9.6 0.00 0.00 0.00 22 1019.5
20260508205533 74 135 3.5 10.4 0.00 0.00 0.00 21 1019.6
20260508205035 74 203 2.6 8.7 0.00 0.00 0.00 22 1019.6
20260508204533 74 135 3.5 9.6 0.00 0.00 0.00 22 1019.9
20260508204035 74 158 2.6 8.7 0.00 0.00 0.00 22 1019.9
20260508203535 74 158 1.7 5.2 0.00 0.00 0.00 22 1020.0
20260508203034 74 135 1.7 5.2 0.00 0.00 0.00 22 1019.8
20260508202532 73 113 3.5 10.4 0.00 0.00 0.00 22 1019.8
20260508202034 74 158 1.7 5.2 0.00 0.00 0.00 22 1020.1
20260508201533 73 135 2.6 7.8 0.00 0.00 0.00 22 1020.2
20260508201054 73 135 4.3 10.4 0.00 0.00 0.00 22 1020.2
20260508200534 73 225 1.7 6.1 0.00 0.00 0.00 23 1020.3
20260508200056 73 113 2.6 7.8 0.00 0.00 0.00 21 1020.3
20260508195554 73 158 1.7 5.2 0.00 0.00 0.00 22 1020.3
20260508195056 72 158 3.5 9.6 0.00 0.00 0.00 21 1020.3
20260508194533 72 135 1.7 7.0 0.00 0.00 0.00 22 1020.3
20260508194033 72 135 3.5 7.8 0.00 0.00 0.00 23 1020.4
20260508193533 72 158 2.6 8.7 0.00 0.00 0.00 25 1020.3
20260508193033 72 158 0.9 3.5 0.00 0.00 0.00 23 1020.4
20260508192534 72 135 2.6 12.2 0.00 0.00 0.00 24 1020.5
20260508192033 72 135 2.6 6.1 0.00 0.00 0.00 24 1020.5
20260508191534 72 135 3.5 7.8 0.00 0.00 0.00 25 1020.6
20260508191033 71 135 2.6 7.0 0.00 0.00 0.00 25 1020.6
20260508190535 71 158 2.6 7.0 0.00 0.00 0.00 26 1020.6
20260508190034 71 158 1.7 6.1 0.00 0.00 0.00 27 1020.8
20260508185535 70 135 1.7 6.1 0.00 0.00 0.00 26 1020.8
20260508185034 70 158 2.6 6.1 0.00 0.00 0.00 26 1020.8
20260508184534 71 113 2.6 7.0 0.00 0.00 0.00 25 1020.8
20260508184035 71 113 4.3 9.6 0.00 0.00 0.00 24 1020.8
20260508183533 71 113 4.3 12.2 0.00 0.00 0.00 25 1020.8
20260508183035 71 135 4.3 10.4 0.00 0.00 0.00 25 1020.9
20260508182533 71 135 3.5 7.0 0.00 0.00 0.00 25 1020.8
20260508182034 71 113 2.6 7.0 0.00 0.00 0.00 27 1020.8
20260508181533 70 135 4.3 12.2 0.00 0.00 0.00 25 1020.5
20260508181033 70 135 2.6 7.0 0.00 0.00 0.00 26 1020.6
20260508180555 71 113 1.7 7.0 0.00 0.00 0.00 26 1020.9
20260508180035 70 203 0.9 4.3 0.00 0.00 0.00 26 1021.0
20260508175551 70 135 2.6 6.1 0.00 0.00 0.00 27 1021.0
20260508175034 70 158 0.9 5.2 0.00 0.00 0.00 28 1021.0
20260508174534 69 158 1.7 5.2 0.00 0.00 0.00 28 1020.7
20260508174034 69 203 1.7 4.3 0.00 0.00 0.00 33 1021.1
20260508173531 69 135 1.7 5.2 0.00 0.00 0.00 33 1021.1
20260508173033 69 135 1.7 5.2 0.00 0.00 0.00 31 1021.1
20260508172554 69 135 1.7 8.7 0.00 0.00 0.00 30 1021.1
20260508172032 69 135 0.9 6.1 0.00 0.00 0.00 29 1021.3
20260508171534 70 113 0.9 3.5 0.00 0.00 0.00 29 1021.2
20260508171054 70 135 0.9 6.1 0.00 0.00 0.00 28 1021.2
20260508170534 69 158 1.7 5.2 0.00 0.00 0.00 29 1021.1
20260508170033 70 0.0 5.2 0.00 0.00 0.00 30 1021.2
20260508165534 69 158 0.9 5.2 0.00 0.00 0.00 29 1021.1
20260508165034 69 135 0.9 4.3 0.00 0.00 0.00 32 1021.4
20260508164534 69 135 0.9 4.3 0.00 0.00 0.00 30 1021.4
20260508164032 70 135 0.9 1.7 0.00 0.00 0.00 32 1021.7
20260508163535 69 113 0.9 2.6 0.00 0.00 0.00 33 1021.4
20260508163053 69 0.0 2.6 0.00 0.00 0.00 33 1021.7
20260508162535 69 0.0 3.5 0.00 0.00 0.00 33 1021.3
20260508162034 69 135 0.9 1.7 0.00 0.00 0.00 31 1021.3
20260508161535 69 113 0.9 2.6 0.00 0.00 0.00 32 1021.6
20260508161035 69 0.0 1.7 0.00 0.00 0.00 33 1021.5
20260508160534 68 0.0 2.6 0.00 0.00 0.00 33 1021.2
20260508160034 68 0.0 1.7 0.00 0.00 0.00 32 1021.1
20260508155553 68 0.0 0.9 0.00 0.00 0.00 35 1021.1
20260508155034 68 0.0 1.7 0.00 0.00 0.00 34 1021.1
20260508154552 68 0.0 0.9 0.00 0.00 0.00 33 1021.1
20260508154035 68 0.0 0.9 0.00 0.00 0.00 33 1021.1
20260508153553 67 0.0 0.9 0.00 0.00 0.00 34 1021.1
20260508153034 67 0.0 0.9 0.00 0.00 0.00 33 1021.0
20260508152534 67 0.0 0.0 0.00 0.00 0.00 34 1021.0
20260508152035 66 0.0 0.9 0.00 0.00 0.00 35 1021.1
20260508151533 67 0.0 0.9 0.00 0.00 0.00 35 1021.1
20260508151033 67 0.0 0.0 0.00 0.00 0.00 33 1021.3
20260508150535 67 0.0 0.9 0.00 0.00 0.00 34 1021.2
20260508150035 66 0.0 0.0 0.00 0.00 0.00 35 1020.9
20260508145533 66 0.0 0.0 0.00 0.00 0.00 36 1021.2
20260508145033 65 0.0 0.0 0.00 0.00 0.00 38 1021.2
20260508144532 65 0.0 0.0 0.00 0.00 0.00 38 1020.9
20260508144034 64 0.0 0.0 0.00 0.00 0.00 37 1020.9
20260508143553 64 0.0 0.0 0.00 0.00 0.00 38 1021.2
20260508143034 63 0.0 0.0 0.00 0.00 0.00 40 1021.3
20260508142552 63 0.0 0.0 0.00 0.00 0.00 39 1021.2
20260508142054 62 0.0 0.0 0.00 0.00 0.00 41 1021.2
20260508141533 61 0.0 0.0 0.00 0.00 0.00 42 1021.1
20260508141034 61 0.0 0.0 0.00 0.00 0.00 44 1021.1
20260508140534 60 0.0 0.0 0.00 0.00 0.00 46 1021.1
20260508140033 59 0.0 0.0 0.00 0.00 0.00 49 1021.1
20260508135533 58 0.0 0.0 0.00 0.00 0.00 52 1020.8
20260508135031 56 0.0 0.0 0.00 0.00 0.00 54 1020.7
20260508134534 55 0.0 0.0 0.00 0.00 0.00 55 1020.7
20260508134032 54 0.0 0.0 0.00 0.00 0.00 56 1020.6
20260508133555 52 0.0 0.0 0.00 0.00 0.00 58 1020.2
20260508133031 51 0.0 0.0 0.00 0.00 0.00 61 1019.8
20260508132534 49 0.0 0.0 0.00 0.00 0.00 66 1019.6
20260508132035 48 0.0 0.0 0.00 0.00 0.00 68 1019.5
20260508131533 48 0.0 0.0 0.00 0.00 0.00 68 1019.5
20260508131033 47 0.0 0.0 0.00 0.00 0.00 68 1019.4
20260508130532 47 0.0 0.0 0.00 0.00 0.00 69 1019.1
20260508130035 47 0.0 0.0 0.00 0.00 0.00 69 1019.0
20260508125533 46 0.0 0.0 0.00 0.00 0.00 70 1019.0
20260508125035 46 0.0 0.0 0.00 0.00 0.00 71 1019.0
20260508124534 46 0.0 0.0 0.00 0.00 0.00 71 1018.6
20260508124034 46 0.0 0.0 0.00 0.00 0.00 71 1018.5
20260508123533 46 0.0 0.0 0.00 0.00 0.00 70 1018.5
20260508123034 46 0.0 0.0 0.00 0.00 0.00 70 1018.5
20260508122533 46 0.0 0.0 0.00 0.00 0.00 69 1018.4
20260508122033 46 0.0 0.0 0.00 0.00 0.00 68 1018.3
20260508121533 47 0.0 0.0 0.00 0.00 0.00 68 1018.3
20260508121035 47 0.0 0.0 0.00 0.00 0.00 69 1018.3
20260508120534 46 0.0 0.0 0.00 0.00 0.00 69 1018.6
20260508120054 46 0.0 0.0 0.00 0.00 0.00 68 1018.6
20260508115531 47 0.0 0.0 0.00 0.00 0.00 68 1018.6
20260508115034 47 0.0 0.0 0.00 0.00 0.00 68 1018.6
20260508114535 48 0.0 0.0 0.00 0.00 0.00 68 1018.6
20260508114054 47 0.0 0.0 0.00 0.00 0.00 69 1018.5
20260508113533 47 0.0 0.0 0.00 0.00 0.00 71 1018.5
20260508113034 47 0.0 0.0 0.00 0.00 0.00 70 1018.8
20260508112533 47 0.0 0.0 0.00 0.00 0.00 70 1018.8
20260508112031 47 0.0 0.0 0.00 0.00 0.00 69 1018.8
20260508111534 47 0.0 0.0 0.00 0.00 0.00 69 1018.8
20260508111034 47 0.0 0.0 0.00 0.00 0.00 68 1018.5
20260508110533 47 0.0 0.0 0.00 0.00 0.00 67 1018.4
20260508110032 47 0.0 0.0 0.00 0.00 0.00 66 1018.4
20260508105533 48 0.0 0.0 0.00 0.00 0.00 66 1018.4
20260508105033 48 0.0 0.0 0.00 0.00 0.00 66 1018.6
20260508104534 48 0.0 0.0 0.00 0.00 0.00 64 1018.6
20260508104034 48 0.0 0.0 0.00 0.00 0.00 64 1018.6
20260508103555 48 0.0 0.0 0.00 0.00 0.00 63 1018.5
20260508103032 48 0.0 0.0 0.00 0.00 0.00 64 1018.6
20260508102534 48 0.0 0.0 0.00 0.00 0.00 64 1018.5
20260508102033 48 0.0 0.0 0.00 0.00 0.00 64 1018.6
20260508101535 48 0.0 0.0 0.00 0.00 0.00 64 1018.6
20260508101054 48 0.0 0.0 0.00 0.00 0.00 63 1018.6
20260508100535 49 0.0 0.0 0.00 0.00 0.00 63 1018.5
20260508100054 49 0.0 0.0 0.00 0.00 0.00 62 1018.7
20260508095533 49 0.0 0.0 0.00 0.00 0.00 61 1018.5
20260508095035 49 0.0 0.0 0.00 0.00 0.00 62 1018.3
20260508094533 49 0.0 0.0 0.00 0.00 0.00 62 1018.4
20260508094033 49 0.0 0.0 0.00 0.00 0.00 61 1018.6
20260508093532 49 0.0 0.0 0.00 0.00 0.00 62 1018.6
20260508093035 49 0.0 0.0 0.00 0.00 0.00 62 1018.3
20260508092535 49 0.0 0.0 0.00 0.00 0.00 62 1018.3
20260508092033 50 0.0 0.0 0.00 0.00 0.00 61 1018.3
20260508091532 49 0.0 0.0 0.00 0.00 0.00 62 1018.2
20260508091054 49 0.0 0.0 0.00 0.00 0.00 62 1018.6
20260508090533 49 0.0 0.0 0.00 0.00 0.00 64 1018.6
20260508090055 49 0.0 0.0 0.00 0.00 0.00 64 1018.3
20260508085532 49 0.0 0.0 0.00 0.00 0.00 63 1018.3
20260508085033 49 0.0 0.0 0.00 0.00 0.00 61 1018.3
20260508084533 50 0.0 0.0 0.00 0.00 0.00 61 1018.3
20260508084034 50 0.0 0.0 0.00 0.00 0.00 60 1018.7
20260508083532 50 0.0 0.0 0.00 0.00 0.00 59 1018.7
20260508083034 50 0.0 0.0 0.00 0.00 0.00 60 1018.7
20260508082534 50 0.0 0.0 0.00 0.00 0.00 60 1018.7
20260508082031 50 0.0 0.0 0.00 0.00 0.00 59 1018.3
20260508081533 51 0.0 0.0 0.00 0.00 0.00 59 1018.7
20260508081034 51 0.0 0.0 0.00 0.00 0.00 58 1018.6
20260508080535 51 0.0 0.0 0.00 0.00 0.00 58 1018.6
20260508080034 51 0.0 0.0 0.00 0.00 0.00 58 1018.6
20260508075533 52 0.0 0.0 0.00 0.00 0.00 57 1018.9
20260508075055 52 0.0 0.0 0.00 0.00 0.00 56 1018.5
20260508074531 52 0.0 0.0 0.00 0.00 0.00 55 1018.5
20260508074054 53 0.0 0.0 0.00 0.00 0.00 56 1018.5
20260508073532 53 0.0 0.0 0.00 0.00 0.00 54 1018.5
20260508073035 53 0.0 0.0 0.00 0.00 0.00 54 1018.8
20260508072533 53 0.0 0.0 0.00 0.00 0.00 54 1018.7
20260508072033 53 0.0 0.0 0.00 0.00 0.00 52 1018.7
20260508071534 54 0.0 0.0 0.00 0.00 0.00 52 1018.7
20260508071034 54 0.0 0.0 0.00 0.00 0.00 52 1018.8
20260508070535 54 0.0 0.0 0.00 0.00 0.00 51 1018.7
20260508070032 54 0.0 0.0 0.00 0.00 0.00 52 1018.7
20260508065555 54 0.0 0.9 0.00 0.00 0.00 51 1018.7
20260508065054 54 0.0 0.0 0.00 0.00 0.00 51 1018.4
20260508064533 54 0.0 0.0 0.00 0.00 0.00 51 1018.4
20260508064034 54 0.0 0.9 0.00 0.00 0.00 50 1018.4
20260508063552 54 0.0 0.0 0.00 0.00 0.00 52 1018.4
20260508063055 54 0.0 0.0 0.00 0.00 0.00 52 1018.4
20260508062534 53 0.0 0.0 0.00 0.00 0.00 53 1018.4
20260508062035 53 0.0 0.0 0.00 0.00 0.00 54 1018.4
20260508061552 53 0.0 0.0 0.00 0.00 0.00 54 1018.2
20260508061034 53 0.0 0.0 0.00 0.00 0.00 53 1018.0
20260508060535 54 0.0 0.0 0.00 0.00 0.00 53 1018.4
20260508060035 54 0.0 0.0 0.00 0.00 0.00 52 1018.1
20260508055553 54 0.0 0.0 0.00 0.00 0.00 51 1018.0
20260508055033 55 0.0 0.0 0.00 0.00 0.00 52 1017.9
20260508054535 55 0.0 0.0 0.00 0.00 0.00 51 1017.5
20260508054033 55 0.0 0.0 0.00 0.00 0.00 50 1017.5
20260508053533 55 0.0 0.0 0.00 0.00 0.00 49 1017.5
20260508053033 56 0.0 0.0 0.00 0.00 0.00 48 1017.8
20260508052533 56 0.0 0.0 0.00 0.00 0.00 48 1017.7
20260508052032 57 0.0 0.0 0.00 0.00 0.00 47 1017.8
20260508051533 57 0.0 0.0 0.00 0.00 0.00 46 1017.4
20260508051031 57 0.0 0.0 0.00 0.00 0.00 46 1017.4
20260508050534 58 0.0 0.0 0.00 0.00 0.00 44 1017.4
20260508050032 58 0.0 0.0 0.00 0.00 0.00 43 1017.3
20260508045535 58 0.0 0.0 0.00 0.00 0.00 44 1017.3
20260508045112 59 0.0 0.0 0.00 0.00 0.00 43 1017.4
20260508044535 60 0.0 0.0 0.00 0.00 0.00 41 1017.8
20260508044032 60 0.0 0.0 0.00 0.00 0.00 40 1017.4
20260508043555 60 0.0 0.0 0.00 0.00 0.00 40 1017.4
20260508043035 61 0.0 0.9 0.00 0.00 0.00 39 1017.7
20260508042554 60 0.0 0.0 0.00 0.00 0.00 39 1017.3
20260508042032 60 0.0 0.0 0.00 0.00 0.00 41 1017.3
20260508041535 61 0.0 0.9 0.00 0.00 0.00 39 1017.3
20260508041034 61 0.0 0.9 0.00 0.00 0.00 39 1017.3
20260508040555 61 0.0 0.0 0.00 0.00 0.00 39 1017.3
20260508040034 61 0.0 0.0 0.00 0.00 0.00 39 1017.3
20260508035555 61 0.0 0.0 0.00 0.00 0.00 38 1017.2
20260508035031 61 0.0 0.0 0.00 0.00 0.00 38 1017.2
20260508034555 61 0.0 0.0 0.00 0.00 0.00 39 1017.1
20260508034033 61 0.0 0.0 0.00 0.00 0.00 38 1017.1
20260508033534 62 0.0 0.0 0.00 0.00 0.00 39 1017.1
20260508033033 62 0.0 0.0 0.00 0.00 0.00 38 1017.1
20260508032532 62 0.0 0.9 0.00 0.00 0.00 38 1017.1
20260508032054 62 0.0 0.0 0.00 0.00 0.00 38 1017.0
20260508031532 62 0.0 0.0 0.00 0.00 0.00 38 1016.7
20260508031055 63 0.0 0.0 0.00 0.00 0.00 38 1016.6
20260508030534 63 0.0 0.0 0.00 0.00 0.00 38 1016.6
20260508030033 63 0.0 0.0 0.00 0.00 0.00 37 1016.6
20260508025554 64 0.0 0.0 0.00 0.00 0.00 37 1016.6
20260508025033 65 0.0 0.0 0.00 0.00 0.00 36 1016.9
20260508024533 65 0.0 0.0 0.00 0.00 0.00 35 1016.9
20260508024053 65 0.0 0.0 0.00 0.00 0.00 35 1016.9
20260508023613 66 0.0 0.0 0.00 0.00 0.00 35 1016.9
20260508023052 67 0.0 0.0 0.00 0.00 0.00 33 1016.8
20260508022554 68 0.0 0.0 0.00 0.00 0.00 31 1017.1
20260508022032 69 0.0 0.0 0.00 0.00 0.00 30 1017.1
20260508021534 70 0.0 0.0 0.00 0.00 0.00 29 1017.3
20260508021032 71 0.0 0.0 0.00 0.00 0.00 28 1017.3
20260508020533 72 0.0 0.0 0.00 0.00 0.00 27 1017.3
20260508020033 72 0.0 0.0 0.00 0.00 0.00 25 1017.5
20260508015535 73 0.0 0.0 0.00 0.00 0.00 25 1017.2
20260508015035 73 0.0 0.0 0.00 0.00 0.00 24 1017.5
20260508014553 73 0.0 0.0 0.00 0.00 0.00 24 1017.2
20260508014033 74 0.0 1.7 0.00 0.00 0.00 23 1017.2
20260508013533 74 0.0 0.9 0.00 0.00 0.00 24 1016.9
20260508013034 74 0.0 0.9 0.00 0.00 0.00 24 1016.6
20260508012535 74 0.0 1.7 0.00 0.00 0.00 23 1016.4
20260508012052 75 0.0 1.7 0.00 0.00 0.00 22 1016.3
20260508011554 75 0.0 1.7 0.00 0.00 0.00 23 1016.6
20260508011031 75 0.0 0.9 0.00 0.00 0.00 23 1016.6
20260508010533 74 0.0 1.7 0.00 0.00 0.00 23 1016.3
20260508010056 74 0.0 1.7 0.00 0.00 0.00 24 1016.4
20260508005533 74 0.0 0.9 0.00 0.00 0.00 23 1016.4
20260508005034 74 0.0 2.6 0.00 0.00 0.00 24 1016.2
20260508004533 73 0.0 2.6 0.00 0.00 0.00 25 1016.0
20260508004035 73 0.0 1.7 0.00 0.00 0.00 25 1016.0
20260508003532 73 0.0 0.9 0.00 0.00 0.00 24 1015.9
20260508003035 73 0.0 0.9 0.00 0.00 0.00 25 1016.3
20260508002533 73 0.0 0.9 0.00 0.00 0.00 24 1016.4
20260508002034 73 0.0 0.9 0.00 0.00 0.00 24 1016.4
20260508001533 73 0.0 0.0 0.00 0.00 0.00 25 1016.4
20260508001033 73 0.0 1.7 0.00 0.00 0.00 25 1016.5
20260508000533 74 0.0 0.0 0.00 0.00 0.00 23 1016.7
20260508000033 74 0.0 0.0 0.00 0.00 0.00 24 1016.6
20260507235532 73 0.0 0.9 0.00 0.00 0.00 24 1016.6
20260507235033 73 0.0 1.7 0.00 0.00 0.00 23 1016.6
20260507234532 74 135 0.9 2.6 0.00 0.00 0.00 24 1016.7
20260507234035 74 135 0.9 3.5 0.00 0.00 0.00 23 1016.7
20260507233533 74 203 0.9 3.5 0.00 0.00 0.00 23 1016.4
20260507233032 75 135 0.9 6.1 0.00 0.00 0.00 22 1016.7
20260507232555 75 0.0 2.6 0.00 0.00 0.00 23 1016.8
20260507232053 75 203 0.9 5.2 0.00 0.00 0.00 24 1016.9
20260507231535 75 113 1.7 6.1 0.00 0.00 0.00 24 1016.9
20260507231032 75 0.0 2.6 0.00 0.00 0.00 24 1017.0
20260507230533 74 225 0.9 4.3 0.00 0.00 0.00 24 1017.1
20260507230033 74 135 0.9 4.3 0.00 0.00 0.00 23 1017.2
20260507225533 74 113 1.7 5.2 0.00 0.00 0.00 24 1017.3
20260507225033 74 135 1.7 4.3 0.00 0.00 0.00 25 1017.3
20260507224534 75 225 1.7 6.1 0.00 0.00 0.00 26 1017.3
20260507224035 74 135 2.6 7.0 0.00 0.00 0.00 25 1017.4
20260507223533 74 135 0.9 4.3 0.00 0.00 0.00 25 1017.4
20260507223031 74 135 1.7 5.2 0.00 0.00 0.00 25 1017.2
20260507222534 74 135 1.7 5.2 0.00 0.00 0.00 25 1017.6
20260507222053 75 135 0.9 7.0 0.00 0.00 0.00 24 1017.6
20260507221535 75 135 1.7 7.0 0.00 0.00 0.00 25 1017.6
20260507221031 75 158 0.9 3.5 0.00 0.00 0.00 24 1017.5
20260507220555 75 135 1.7 7.8 0.00 0.00 0.00 23 1017.6
20260507220035 75 315 0.9 3.5 0.00 0.00 0.00 23 1017.7
20260507215614 74 0.0 1.7 0.00 0.00 0.00 22 1017.7
20260507215033 74 135 1.7 7.0 0.00 0.00 0.00 23 1017.8
20260507214533 75 113 1.7 6.1 0.00 0.00 0.00 23 1017.8
20260507214033 75 113 0.9 5.2 0.00 0.00 0.00 24 1017.9